Location: Invercargill
(46.4000°S, 168.3500°E)
Time: 10:48:38
(UTC+12:00)

YAOGAN 6 - Pass Details

Date: 14 May 2021
Orbit: 464 x 502 km, 97.0° (Epoch: 15 June)

Event Time Altitude Azimuth Distance (km) Brightness Sun altitude
Rises 18:40:39 0° 173° (S) 2,548 6.0 -13.0°
Reaches altitude 10° 18:42:45 10° 177° (S) 1,663 5.1 -13.4°
Maximum altitude 18:46:14 52° 254° (WSW) 605 3.4 -14.0°
Drops below altitude 10° 18:49:41 10° 330° (NNW) 1,650 5.8 -14.6°
Sets 18:51:46 0° 335° (NNW) 2,525 6.7 -14.9°
